This demonstration page uses our WeatherBlox Daily Observations layout. Learn more.

Left ArrowRight Arrow

Hourly Observations for May 7, 2020

Temp ( °F °C ) Dew Point ( °F °C ) Humidity (%) Winds ( mph kmh ) Pressure ( in mb ) Visibility ( mi km ) Precip ( " mm )
12:15 am 00:15 Clear 47 8.3 37 2.6 68 68 ESE 10 17 30.21 1023 10 16.0934 0 0
12:35 am 00:35 Clear 47 8.2 37 2.5 68 68 ESE 12 19 30.21 1023 10 16.0934 0 0
12:55 am 00:55 Clear 47 8.3 37 2.5 67 67 SE 10 17 30.22 1023 10 16.0934 0 0
1:15 am 01:15 Clear 47 8.6 37 2.7 67 67 SE 10 17 30.21 1023 10 16.0934 0 0
1:35 am 01:35 Clear 48 8.9 37 2.6 65 65 ESE 10 17 30.19 1022 10 16.0934 0 0
1:55 am 01:55 Partly Cloudy 48 9 37 2.6 65 65 SE 9 15 30.17 1022 10 16.0934 0 0
2:15 am 02:15 Partly Cloudy 48 9 37 2.5 64 64 SE 13 20 30.15 1021 10 16.0934 0 0
2:35 am 02:35 Partly Cloudy 48 9.1 37 2.5 64 64 SE 10 17 30.16 1021 10 16.0934 0 0
2:55 am 02:55 Partly Cloudy 48 9.1 37 2.5 64 64 SE 13 20 30.14 1021 10 16.0934 0 0
3:15 am 03:15 Mostly Cloudy 49 9.2 37 2.5 63 63 SE 8 13 30.17 1022 10 16.0934 0 0
3:35 am 03:35 Cloudy 49 9.5 37 2.5 62 62 SSE 10 17 30.16 1021 10 16.0934 0 0
3:55 am 03:55 Cloudy 49 9.3 37 2.5 63 63 SSE 14 22 30.14 1021 10 16.0934 0 0
4:15 am 04:15 Mostly Cloudy 48 9.1 37 2.6 64 64 SSE 14 22 30.13 1020 10 16.0934 0 0
4:35 am 04:35 Mostly Cloudy 48 9 37 2.7 65 65 SSE 13 20 30.13 1020 10 16.0934 0 0
4:55 am 04:55 Partly Cloudy 48 9.1 37 2.8 65 65 SSE 12 19 30.12 1020 10 16.0934 0 0
5:15 am 05:15 Partly Cloudy 48 9 38 3.1 67 67 S 10 17 30.11 1020 10 16.0934 0 0
5:35 am 05:35 Mostly Cloudy with Light Rain 48 9.1 38 3.3 67 67 SSE 13 20 30.1 1019 10 16.0934 0 0
5:55 am 05:55 Mostly Cloudy 48 9 38 3.5 69 69 SE 15 24 30.08 1019 10 16.0934 0 0
6:15 am 06:15 Cloudy with Nearby Thunderstorms 48 9.1 38 3.6 69 69 SSE 10 17 30.08 1019 10 16.0934 0 0
6:35 am 06:35 Mostly Cloudy 48 9 39 3.7 70 70 SSE 10 17 30.08 1019 10 16.0934 0 0
6:55 am 06:55 Mostly Cloudy with Nearby Thunderstorms 48 9 39 4.1 72 72 SE 7 11 30.1 1019 10 16.0934 0 0
7:15 am 07:15 Cloudy 48 9 40 4.5 74 74 E 6 9 30.13 1020 10 16.0934 0 0
7:35 am 07:35 Cloudy with Light Rain 48 8.7 42 5.3 79 79 ESE 15 24 30.08 1019 10 16.0934 0 0
7:55 am 07:55 Cloudy with Drizzle 48 8.7 42 5.5 81 81 SE 18 30 30.05 1018 10 16.0934 0 0
8:15 am 08:15 Cloudy with Light Rain 47 8.5 42 5.7 83 83 ESE 17 28 30.03 1017 10 16.0934 0 0
8:35 am 08:35 Cloudy 48 9 43 6 82 82 SE 15 24 30.03 1017 10 16.0934 0 0
8:55 am 08:55 Partly Cloudy 50 10 44 6.7 80 80 SSE 15 24 30.03 1017 10 16.0934 0 0
9:15 am 09:15 Partly Cloudy 52 11 44 6.6 75 75 SSE 12 19 30.01 1016 10 16.0934 0 0
9:35 am 09:35 Partly Cloudy 52 11.3 45 7 75 75 SSE 15 24 30.01 1016 10 16.0934 0 0
9:55 am 09:55 Sunny 54 12.3 44 6.5 68 68 SSE 13 20 29.99 1016 10 16.0934 0 0
10:15 am 10:15 Sunny 56 13.3 44 6.4 63 63 SSE 14 22 29.99 1016 10 16.0934 0 0
10:35 am 10:35 Sunny 58 14.4 43 6.3 59 59 SSE 13 20 29.96 1015 10 16.0934 0 0
10:55 am 10:55 Sunny 58 14.4 43 6 57 57 SSE 15 24 29.96 1015 10 16.0934 0 0
11:15 am 11:15 Sunny 60 15.5 43 5.9 53 53 SSE 15 24 29.95 1014 10 16.0934 0 0
11:35 am 11:35 Sunny 60 15.8 42 5.6 51 51 S 17 28 29.95 1014 10 16.0934 0 0
11:55 am 11:55 Sunny 61 16 42 5.7 51 51 S 12 19 29.94 1014 10 16.0934 0 0
12:15 pm 12:15 Sunny 60 15.8 43 6.2 53 53 SSE 18 30 29.92 1013 10 16.0934 0 0
12:35 pm 12:35 Sunny 63 17.1 44 6.4 50 50 SSE 17 28 29.89 1012 10 16.0934 0 0
12:55 pm 12:55 Partly Cloudy 64 17.6 43 6.1 47 47 SSE 21 33 29.88 1012 10 16.0934 0 0
1:15 pm 13:15 Mostly Cloudy 63 17.1 44 6.4 50 50 SSE 14 22 29.88 1012 10 16.0934 0 0
1:35 pm 13:35 Cloudy 62 16.7 44 6.9 53 53 S 16 26 29.87 1012 10 16.0934 0 0
1:55 pm 13:55 Cloudy 62 16.7 45 7 53 53 SSE 15 24 29.86 1011 10 16.0934 0 0
2:15 pm 14:15 Cloudy 64 17.7 46 7.7 52 52 SSE 14 22 29.84 1010 10 16.0934 0 0
2:35 pm 14:35 Mostly Cloudy 66 18.7 46 8 50 50 SSE 14 22 29.81 1009 10 16.0934 0 0
2:55 pm 14:55 Partly Cloudy 66 18.9 46 8 49 49 SSE 17 28 29.8 1009 10 16.0934 0 0
3:15 pm 15:15 Mostly Cloudy 67 19.3 46 7.9 48 48 SSE 15 24 29.79 1009 10 16.0934 0 0
3:35 pm 15:35 Cloudy 65 18.5 46 7.9 50 50 SSE 13 20 29.79 1009 10 16.0934 0 0
3:55 pm 15:55 Cloudy 65 18.6 47 8.1 51 51 SSE 14 22 29.78 1008 10 16.0934 0 0
4:15 pm 16:15 Mostly Cloudy 67 19.7 47 8.5 49 49 SE 21 33 29.76 1008 10 16.0934 0 0
4:35 pm 16:35 Mostly Cloudy 66 18.7 47 8.3 51 51 SE 18 30 29.77 1008 10 16.0934 0 0
4:55 pm 16:55 Cloudy 65 18.2 47 8.6 54 54 SE 14 22 29.78 1009 10 16.0934 0 0
5:15 pm 17:15 Mostly Cloudy 66 18.9 48 9 53 53 SE 16 26 29.77 1008 10 16.0934 0 0
5:35 pm 17:35 Partly Cloudy 66 18.7 48 8.9 53 53 SE 14 22 29.77 1008 10 16.0934 0 0
5:55 pm 17:55 Sunny 65 18.4 48 9 54 54 SE 17 28 29.78 1008 10 16.0934 0 0
6:15 pm 18:15 Mostly Cloudy 63 17.3 48 8.9 58 58 SE 20 31 29.79 1009 10 16.0934 0 0
6:35 pm 18:35 Cloudy 62 16.4 49 9.5 64 64 SE 22 35 29.8 1009 10 16.0934 0 0
6:55 pm 18:55 Cloudy with Nearby Thunderstorms 58 14.7 51 10.4 76 76 SE 14 22 29.81 1010 7 11.26538 0.05 1.27
7:15 pm 19:15 Cloudy with Heavy Thunderstorms 57 14.1 51 10.8 81 81 N 15 24 29.88 1012 7 11.26538 0.04 1.016
7:35 pm 19:35 Cloudy 56 13.5 51 10.6 83 83 NE 8 13 29.89 1012 10 16.0934 0.05 1.27
7:55 pm 19:55 Partly Cloudy with Nearby Thunderstorms 56 13.4 52 11.2 87 87 E 12 19 29.89 1012 10 16.0934 0.05 1.27
8:15 pm 20:15 Sunny with Nearby Thunderstorms 55 13 52 11 88 88 ESE 9 15 29.9 1012 10 16.0934 0 0
8:35 pm 20:35 Partly Cloudy 55 12.7 51 10.7 88 88 ESE 5 7 29.93 1014 10 16.0934 0 0
8:55 pm 20:55 Mostly Cloudy 55 12.6 51 10.5 87 87 Calm 29.96 1015 10 16.0934 0 0
9:15 pm 21:15 Mostly Cloudy 55 12.7 51 10.3 85 85 N 13 20 30 1016 10 16.0934 0 0
9:35 pm 21:35 Partly Cloudy 52 11 45 7.1 77 77 N 10 17 30.01 1016 10 16.0934 0 0
9:55 pm 21:55 Clear 51 10.4 42 5.4 71 71 N 20 31 30.04 1017 10 16.0934 0 0
10:15 pm 22:15 Clear 49 9.5 41 5 74 74 N 10 17 30.05 1018 10 16.0934 0 0
10:35 pm 22:35 Clear 48 8.8 41 5 77 77 NNW 14 22 30.05 1018 10 16.0934 0 0
10:55 pm 22:55 Clear 47 8.3 41 4.8 79 79 NNW 13 20 30.06 1018 10 16.0934 0 0
11:15 pm 23:15 Clear 47 8.1 41 4.8 80 80 NNW 16 26 30.07 1018 10 16.0934 0 0
11:35 pm 23:35 Clear 46 7.8 40 4.6 80 80 NNW 16 26 30.08 1019 10 16.0934 0 0
11:55 pm 23:55 Clear 45 7.4 41 4.8 84 84 NNW 20 31 30.1 1019 10 16.0934 0 0

Powered by AerisWeather